EA2CW-13 Weather Reports


Display with metric or nautical units.
time (UTC)temp
F
wind
direction
speed
MPH
gust
MPH
rain 1hr
in
rain 24hr
in
rain mn
in
humidity
%
barometer
mb
20260508014456 55 0.0 0.0 0.00 0.00 0.00 88 1046.8
20260508012920 55 0.0 0.0 0.00 0.00 0.00 88 1047.1
20260508011344 56 0.0 0.0 0.00 0.00 0.00 88 1047.2
20260508005808 56 0.0 0.0 0.00 0.00 0.00 87 1047.3
20260508004232 56 0.0 0.0 0.00 0.00 0.00 88 1047.5
20260508002656 57 0.0 0.0 0.00 0.00 0.00 88 1047.3
20260508001120 57 0.0 0.0 0.00 0.00 0.00 88 1047.5
20260507235544 57 0.0 0.0 0.00 0.00 0.00 89 1047.6
20260507234008 57 0.0 0.0 0.00 0.00 0.00 89 1047.6
20260507232432 57 0.0 0.0 0.00 0.00 0.00 88 1047.6
20260507230856 58 0.0 0.0 0.00 0.00 0.00 88 1047.7
20260507225320 58 0.0 0.0 0.00 0.00 0.00 87 1047.7
20260507223744 58 0.0 0.0 0.00 0.00 0.00 87 1047.9
20260507222208 59 0.0 0.0 0.00 0.00 0.00 86 1047.9
20260507220632 59 0.0 0.0 0.00 0.00 0.00 86 1047.9
20260507215056 60 0.0 0.0 0.00 0.00 0.00 85 1047.8
20260507213520 60 0.0 0.0 0.00 0.00 0.00 84 1047.6
20260507211944 60 0.0 0.0 0.00 0.00 0.00 84 1047.6
20260507210408 60 0.0 0.0 0.00 0.00 0.00 82 1047.6
20260507204833 61 0.0 0.0 0.00 0.00 0.00 81 1047.5
20260507203257 61 0.0 0.0 0.00 0.00 0.00 79 1047.3
20260507201721 62 0.0 0.0 0.00 0.00 0.00 77 1047.1
20260507200145 62 0.0 0.0 0.00 0.00 0.00 75 1046.9
20260507194609 63 0.0 0.0 0.00 0.00 0.00 73 1046.7
20260507193033 64 0.0 0.0 0.00 0.00 0.00 70 1046.5
20260507191457 65 0.0 0.0 0.00 0.00 0.00 67 1046.5
20260507185921 66 0.0 0.0 0.00 0.00 0.00 64 1046.4
20260507184345 68 0.0 0.0 0.00 0.00 0.00 62 1046.4
20260507182809 70 0.0 0.0 0.00 0.00 0.00 64 1046.3
20260507181233 69 0.0 0.0 0.00 0.00 0.00 66 1046.1
20260507175657 68 0.0 0.0 0.00 0.00 0.00 66 1046.1
20260507174121 68 0.0 0.0 0.00 0.00 0.00 65 1046.3
20260507172545 68 0.0 0.0 0.00 0.00 0.00 63 1046.3
20260507171009 66 0.0 0.0 0.00 0.00 0.00 61 1046.3
20260507165433 69 0.0 0.0 0.00 0.00 0.00 51 1046.6
20260507163857 67 0.0 0.0 0.00 0.00 0.00 46 1047.0
20260507162321 70 0.0 0.0 0.00 0.00 0.00 41 1046.5
20260507160745 71 0.0 0.0 0.00 0.00 0.00 40 1046.3
20260507155209 72 0.0 0.0 0.00 0.00 0.00 39 1046.0
20260507153633 76 0.0 0.0 0.00 0.00 0.00 38 1045.5
20260507152057 77 0.0 0.0 0.00 0.00 0.00 37 1045.1
20260507150521 83 0.0 0.0 0.00 0.00 0.00 35 1045.0
20260507144945 82 0.0 0.0 0.00 0.00 0.00 39 1045.1
20260507143409 79 0.0 0.0 0.00 0.00 0.00 43 1045.4
20260507141834 76 0.0 0.0 0.00 0.00 0.00 46 1045.5
20260507140258 75 0.0 0.0 0.00 0.00 0.00 48 1045.6
20260507134722 73 0.0 0.0 0.00 0.00 0.00 48 1045.9
20260507133146 76 0.0 0.0 0.00 0.00 0.00 46 1046.0
20260507131610 76 0.0 0.0 0.00 0.00 0.00 47 1046.0
20260507130034 75 0.0 0.0 0.00 0.00 0.00 48 1046.4
20260507124458 71 0.0 0.0 0.00 0.00 0.00 53 1046.7
20260507122922 68 0.0 0.0 0.00 0.00 0.00 55 1047.0
20260507121346 68 0.0 0.0 0.00 0.00 0.00 57 1047.2
20260507115810 67 0.0 0.0 0.00 0.00 0.00 59 1047.6
20260507114234 66 0.0 0.0 0.00 0.00 0.00 60 1047.7
20260507112658 65 0.0 0.0 0.00 0.00 0.00 61 1047.9
20260507111122 65 0.0 0.0 0.00 0.00 0.00 61 1048.0
20260507105546 64 0.0 0.0 0.00 0.00 0.00 62 1048.3
20260507104010 64 0.0 0.0 0.00 0.00 0.00 61 1048.5
20260507102434 63 0.0 0.0 0.00 0.00 0.00 63 1048.8
20260507100858 62 0.0 0.0 0.00 0.00 0.00 64 1049.0
20260507095322 61 0.0 0.0 0.00 0.00 0.00 64 1049.2
20260507093746 61 0.0 0.0 0.00 0.00 0.00 64 1049.5
20260507092210 62 0.0 0.0 0.00 0.00 0.00 64 1049.5
20260507090634 63 0.0 0.0 0.00 0.00 0.00 64 1049.7
20260507085058 63 0.0 0.0 0.00 0.00 0.00 66 1049.7
20260507083522 62 0.0 0.0 0.00 0.00 0.00 70 1049.8
20260507081946 61 0.0 0.0 0.00 0.00 0.00 72 1050.0
20260507080410 60 0.0 0.0 0.00 0.00 0.00 74 1050.2
20260507074834 59 0.0 0.0 0.00 0.00 0.00 76 1050.3
20260507073258 59 0.0 0.0 0.00 0.00 0.00 79 1050.3
20260507071722 56 0.0 0.0 0.00 0.00 0.00 81 1050.5
20260507070146 55 0.0 0.0 0.00 0.00 0.00 82 1050.7
20260507064611 54 0.0 0.0 0.00 0.00 0.00 84 1050.7
20260507063035 55 0.0 0.0 0.00 0.00 0.00 84 1050.5
20260507061459 55 0.0 0.0 0.00 0.00 0.00 84 1050.6
20260507055923 55 0.0 0.0 0.00 0.00 0.00 87 1050.7
20260507054347 53 0.0 0.0 0.00 0.00 0.00 87 1050.7
20260507052811 53 0.0 0.0 0.00 0.00 0.00 87 1050.8
20260507051235 53 0.0 0.0 0.00 0.00 0.00 88 1050.5
20260507045659 53 0.0 0.0 0.00 0.00 0.00 88 1050.6
20260507044123 53 0.0 0.0 0.00 0.00 0.00 88 1050.9
20260507042547 53 0.0 0.0 0.00 0.00 0.00 88 1050.9
20260507041011 53 0.0 0.0 0.00 0.00 0.00 88 1050.7
20260507035435 53 0.0 0.0 0.00 0.00 0.00 88 1050.8
20260507033859 53 0.0 0.0 0.00 0.00 0.00 89 1050.8
20260507032323 54 0.0 0.0 0.00 0.00 0.00 89 1050.9
20260507030747 53 0.0 0.0 0.00 0.00 0.00 89 1050.9
20260507025211 54 0.0 0.0 0.00 0.00 0.00 89 1050.9
20260507023635 54 0.0 0.0 0.00 0.00 0.00 90 1051.0
20260507022059 54 0.0 0.0 0.00 0.00 0.00 90 1051.1
20260507020523 54 0.0 0.0 0.00 0.00 0.00 90 1051.1
20260507014947 54 0.0 0.0 0.00 0.00 0.00 91 1051.2